Nassau, Bahamas

2:00 AM EDT on August 22, 2017 (GMT -0400)
Nassau International

Weather History for MYNN - July, 2012

Change the Weather History Date:

Sunday, July 29, 2012

  Actual Average Record
Temperature  
Mean Temperature 85 °F -  
Max Temperature 92 °F 89 °F 95 °F (2016)
Min Temperature 78 °F 75 °F 71 °F (2002)
Cooling Degree Days 20    
Growing Degree Days 35 (Base 50)    
Moisture  
Dew Point 74 °F    
Average Humidity 70    
Maximum Humidity 89    
Minimum Humidity 48    
Precipitation  
Precipitation 0.00 in 0.28 in - ()
Sea Level Pressure  
Sea Level Pressure 30.07 in    
Wind  
Wind Speed 5 mph ()    
Max Wind Speed 12 mph    
Max Gust Speed -    
Visibility 6.8 miles    
Events      
Averages and records for this station are not official NWS values.
T = Trace of Precipitation, MM = Missing Value Source: Averaged Metar Reports

Daily Weather History Graph

Daily Weather History Graph

Search for Another Location

Airport or City:

Trip Planner

Search our weather history database for the weather conditions in past years. The results will help you decide how hot, cold, wet, or windy it might be!

Date:

Astronomy

Jul. 29, 2012 Rise Set
Actual Time 6:36 AM EDT 7:56 PM EDT
Civil Twilight 6:11 AM EDT 8:20 PM EDT
Nautical Twilight 5:42 AM EDT 8:50 PM EDT
Astronomical Twilight 5:11 AM EDT 9:20 PM EDT
Moon 4:54 PM EDT (7/29) 2:54 AM EDT (7/29)
Length of Visible Light 14h 09m
Length of Day
13h 19m
Waxing Gibbous, 85% of the Moon is Illuminated
Jul 29
Waxing Gibbous
Aug 1
Full
Aug 9
Last Quarter
Aug 17
New
Aug 24
First Quarter

Hourly Weather History & Observations

Time (EDT) Temp. Heat Index Dew Point Humidity Pressure Visibility Wind Dir Wind Speed Gust Speed Precip Events Conditions
12:00 AM 82.4 °F 88.2 °F 73.4 °F 74% 30.07 in 6.2 mi East 5.8 mph - N/A   Partly Cloudy
1:00 AM 82.4 °F 88.2 °F 73.4 °F 74% 30.06 in 6.2 mi East 5.8 mph - N/A   Partly Cloudy
2:00 AM 81 °F - 75 °F 78% 30.05 in 8 mi East 3.5 mph - -   Scattered Clouds
2:00 AM 80.6 °F 86.2 °F 75.2 °F 84% 30.05 in 6.2 mi East 3.5 mph - N/A   Partly Cloudy
3:00 AM 80.6 °F 85.4 °F 73.4 °F 79% 30.03 in 6.2 mi East 4.6 mph - N/A   Partly Cloudy
4:00 AM 80.6 °F 85.4 °F 73.4 °F 79% 30.03 in 6.2 mi Calm Calm - N/A   Partly Cloudy
5:00 AM 79 °F - 75 °F 84% 30.04 in 8 mi East 2.3 mph - -   Partly Cloudy
5:00 AM 78.8 °F - 75.2 °F 89% 30.03 in 6.2 mi East 2.3 mph - N/A   Scattered Clouds
6:00 AM 82.4 °F 88.2 °F 73.4 °F 74% 30.04 in 6.2 mi ESE 3.5 mph - N/A   Partly Cloudy
7:00 AM 80.6 °F 85.4 °F 73.4 °F 79% 30.06 in 6.2 mi East 3.5 mph - N/A   Partly Cloudy
8:00 AM 83 °F - 75 °F 71% 30.08 in 8 mi ESE 5.8 mph - -   Scattered Clouds
8:00 AM 82.4 °F 89.5 °F 75.2 °F 79% 30.08 in 6.2 mi ESE 5.8 mph - N/A   Partly Cloudy
9:00 AM 86.0 °F 91.8 °F 71.6 °F 62% 30.09 in 6.2 mi East 4.6 mph - N/A   Partly Cloudy
10:00 AM 86.0 °F 91.8 °F 71.6 °F 62% 30.10 in 6.2 mi SE 10.4 mph - N/A   Partly Cloudy
11:00 AM 89 °F - 72 °F 48% 30.11 in 9 mi East 3.5 mph - -   Scattered Clouds
11:00 AM 87.8 °F 93.8 °F 71.6 °F 58% 30.11 in 6.2 mi East 3.5 mph - N/A   Partly Cloudy
12:00 PM 87.8 °F 93.8 °F 71.6 °F 58% 30.11 in 6.2 mi ESE 10.4 mph - N/A   Scattered Clouds
1:00 PM 89.6 °F 98.2 °F 73.4 °F 59% 30.09 in 6.2 mi South 5.8 mph - N/A   Mostly Cloudy
2:00 PM 90 °F - 76 °F 56% 30.09 in 9 mi South 5.8 mph - -   Mostly Cloudy
2:00 PM 89.6 °F 102.2 °F 77.0 °F 66% 30.08 in 6.2 mi South 5.8 mph - N/A   Scattered Clouds
3:00 PM 89.6 °F 98.2 °F 73.4 °F 59% 30.08 in 6.2 mi ENE 11.5 mph - N/A   Scattered Clouds
4:00 PM 87.8 °F 99.7 °F 77.0 °F 70% 30.06 in 6.2 mi East 10.4 mph - N/A   Partly Cloudy
5:00 PM 86 °F - 74 °F 59% 30.05 in 9 mi ENE 9.2 mph - -   Scattered Clouds
5:00 PM 86.0 °F 93.4 °F 73.4 °F 66% 30.05 in 6.2 mi ENE 9.2 mph - N/A   Partly Cloudy
6:00 PM 84.2 °F 92.3 °F 75.2 °F 74% 30.04 in 6.2 mi NE 9.2 mph - N/A   Partly Cloudy
7:00 PM 84.2 °F 94.1 °F 77.0 °F 79% 30.04 in 6.2 mi NE 3.5 mph - N/A   Partly Cloudy
8:00 PM 85 °F - 74 °F 64% 30.06 in 8 mi ENE 6.9 mph - -   Scattered Clouds
8:00 PM 84.2 °F 92.3 °F 75.2 °F 74% 30.06 in 6.2 mi ENE 6.9 mph - N/A   Partly Cloudy
9:00 PM 84.2 °F 92.3 °F 75.2 °F 74% 30.07 in 6.2 mi NE 3.5 mph - N/A   Partly Cloudy
11:00 PM 83 °F - 76 °F 73% 30.09 in 9 mi ENE 3.5 mph - -   Scattered Clouds
11:00 PM 84.2 °F 92.3 °F 75.2 °F 74% 30.08 in 6.2 mi ENE 3.5 mph - N/A   Partly Cloudy